Change the Weather History Date:

Monday, July 8, 2013

  Actual Average Record
Temperature  
Mean Temperature 65 °F 64 °F  
Max Temperature 78 °F 79 °F 99 °F (1930)
Min Temperature 52 °F 49 °F 35 °F (1903)
Degree Days  
Heating Degree Days 0 3  
Month to date heating degree days 3 29  
Since 1 June heating degree days 223 256  
Since 1 July heating degree days 3 29  
Cooling Degree Days 0 2  
Month to date cooling degree days 31 16  
Year to date cooling degree days 50 38  
Since 1 June cooling degree days 47 36  
Growing Degree Days 14 (Base 50)    
Moisture  
Dew Point 55 °F    
Average Humidity 73    
Maximum Humidity 96    
Minimum Humidity 50    
Precipitation  
Precipitation 0.04 in 0.07 in 1.30 in (1904)
Month to date precipitation 0.93 0.58  
Year to date precipitation 15.12 9.92  
Snow  
Snow 0.00 in - - ()
Snow Depth 0.00 in    
Sea Level Pressure  
Sea Level Pressure 29.97 in    
Wind  
Wind Speed 6 mph (NE)    
Max Wind Speed 25 mph    
Max Gust Speed 31 mph    
Visibility 10 miles    
Events Rain    
T = Trace of Precipitation, MM = Missing Value Source: NWS Daily Summary

Daily Weather History Graph

Daily Weather History Graph

Search for Another Location

Airport or City:

Trip Planner

Search our weather history database for the weather conditions in past years. The results will help you decide how hot, cold, wet, or windy it might be!

Date:

Astronomy

Jul. 08, 2013 Rise Set
Actual Time 5:31 AM MDT 9:13 PM MDT
Civil Twilight 4:52 AM MDT 9:52 PM MDT
Nautical Twilight 4:00 AM MDT 10:44 PM MDT
Astronomical Twilight 2:46 AM MDT 11:57 PM MDT
Moon 6:10 AM MDT (7/8) 9:09 PM MDT (7/8)
Length of Visible Light 16h 59m
Length of Day
15h 42m
New Moon, 0% of the Moon is Illuminated
Jul 8
New Moon
Jul 15
First Quarter
Jul 22
Full
Jul 29
Last Quarter
Aug 6
New

Hourly Weather History & Observations

Time (MDT) Temp. Dew Point Humidity Pressure Visibility Wind Dir Wind Speed Gust Speed Precip Events Conditions
12:54 AM 54.0 °F 50.0 °F 86% 29.90 in 10.0 mi South 5.8 mph - N/A   Clear
1:54 AM 52.0 °F 50.0 °F 93% 29.90 in 10.0 mi ESE 5.8 mph - N/A   Partly Cloudy
2:54 AM 55.0 °F 51.1 °F 86% 29.89 in 10.0 mi Calm Calm - N/A   Partly Cloudy
3:54 AM 53.1 °F 51.1 °F 93% 29.88 in 10.0 mi Calm Calm - N/A   Clear
4:54 AM 57.0 °F 52.0 °F 83% 29.88 in 10.0 mi Calm Calm - N/A   Clear
5:54 AM 54.0 °F 52.0 °F 93% 29.95 in 10.0 mi SW 8.1 mph - N/A   Clear
6:54 AM 55.9 °F 52.0 °F 87% 29.97 in 10.0 mi SE 6.9 mph - N/A   Partly Cloudy
7:54 AM 61.0 °F 55.0 °F 81% 29.95 in 10.0 mi ESE 4.6 mph - N/A   Clear
8:54 AM 64.9 °F 53.1 °F 65% 29.94 in 10.0 mi Calm Calm - N/A   Clear
9:54 AM 69.1 °F 55.0 °F 61% 29.93 in 10.0 mi Calm Calm - N/A   Clear
10:54 AM 72.0 °F 55.9 °F 57% 29.91 in 10.0 mi East 13.8 mph 21.9 mph N/A   Clear
11:54 AM 73.9 °F 55.0 °F 52% 29.93 in 10.0 mi East 11.5 mph - N/A   Clear
12:54 PM 75.9 °F 55.0 °F 48% 29.92 in 10.0 mi NNE 6.9 mph - N/A   Clear
1:54 PM 77.0 °F 57.9 °F 52% 29.91 in 10.0 mi North 10.4 mph 16.1 mph N/A   Scattered Clouds
2:54 PM 63.0 °F 59.0 °F 87% 29.96 in 7.0 mi NNW 15.0 mph 24.2 mph 0.03 in Rain Rain
3:19 PM 60.8 °F 55.4 °F 82% 30.03 in 10.0 mi North 12.7 mph 26.5 mph 0.01 in Rain Light Rain
3:28 PM 60.8 °F 55.4 °F 82% 30.06 in 10.0 mi North 6.9 mph 16.1 mph 0.01 in Rain Light Rain
3:54 PM 60.1 °F 55.0 °F 83% 30.01 in 10.0 mi NW 5.8 mph - 0.01 in Rain Light Rain
4:54 PM 61.0 °F 55.9 °F 83% 29.95 in 10.0 mi SE 5.8 mph - 0.00 in   Clear
5:54 PM 66.9 °F 57.0 °F 70% 29.92 in 10.0 mi SSE 4.6 mph - N/A   Partly Cloudy
6:54 PM 68.0 °F 57.9 °F 70% 29.92 in 10.0 mi ESE 12.7 mph - N/A   Clear
7:54 PM 64.9 °F 57.9 °F 78% 29.92 in 10.0 mi East 8.1 mph - N/A   Partly Cloudy
8:54 PM 63.0 °F 57.9 °F 84% 29.96 in 10.0 mi North 9.2 mph - N/A   Mostly Cloudy
9:15 PM 60.8 °F 53.6 °F 77% 30.07 in 10.0 mi North 8.1 mph 18.4 mph N/A   Overcast
9:47 PM 57.2 °F 55.4 °F 94% 30.09 in 10.0 mi NNE 12.7 mph - N/A   Scattered Clouds
9:54 PM 57.9 °F 55.9 °F 93% 30.02 in 10.0 mi NNE 6.9 mph - N/A   Mostly Cloudy
10:33 PM 55.4 °F 55.4 °F 100% 30.11 in 10.0 mi North 6.9 mph - N/A   Scattered Clouds
10:54 PM 55.0 °F 54.0 °F 96% 30.04 in 10.0 mi North 4.6 mph - N/A   Clear
11:13 PM 55.4 °F 53.6 °F 94% 30.13 in 10.0 mi Calm Calm - N/A   Scattered Clouds
11:54 PM 55.0 °F 54.0 °F 96% 30.04 in 10.0 mi SSW 6.9 mph - N/A   Mostly Cloudy